Location: Bucciano
(41.0833°N, 14.5667°E)
Time: 05:44:03
(UTC+00:00)

Daily predictions for brighter satellites

Satellite Brightness Start Highest point End
(mag) Time Altitude Azimuth Time Altitude Azimuth Time Altitude Azimuth
H-2A R/B 4.3 03:02:09 42° S 03:04:24 47° SSE 04:09:18 10° ESE
FALCON 9 R/B 4.0 03:09:57 20° SSE 03:09:57 20° SSE 03:11:31 10° SE
Atlas Centaur 2 4.4 03:06:04 23° SSE 03:07:01 24° SSE 03:13:19 10° ESE
Cosmos 2278 Rocket 4.4 03:14:44 15° NNE 03:17:25 20° NE 03:21:31 10° E
SJ 16-02 3.9 03:25:48 15° SE 03:25:48 15° SE 03:26:34 10° SE
Cosmos 2333 Rocket 3.1 03:32:03 41° NNE 03:32:03 41° NNE 03:35:40 10° NNE
Cosmos 2219 Rocket 2.9 03:33:24 47° NE 03:33:24 47° NE 03:37:21 10° NNE
Lacrosse 5 rocket 4.1 03:36:15 11° NE 03:36:15 11° NE 03:36:51 10° NE
COSMOS 2428 2.6 03:50:00 87° NE 03:50:00 87° NE 03:55:38 10° NNE
IRIDIUM 104 4.3 03:50:48 10° S 03:56:00 78° E 04:01:14 10° N
Cosmos 2360 Rocket 4.2 04:05:03 15° N 04:05:03 15° N 04:06:11 10° N
Cosmos 1455 Rocket 3.4 04:00:44 10° S 04:05:02 64° E 04:09:21 10° NNE
IRIDIUM 114 4.2 03:59:54 10° S 04:05:07 86° W 04:10:22 10° N
SKYMED 2 3.8 04:05:15 10° SSE 04:09:33 70° ENE 04:10:54 42° N
IRIDIUM 103 4.2 04:09:05 10° S 04:14:17 71° W 04:19:30 10° N
Cosmos 540 Rocket 4.1 04:10:50 10° S 04:15:48 56° ESE 04:20:50 10° NNE
ATLAS CENTAUR R/B 4.5 04:14:47 10° SE 04:16:15 12° ESE 04:17:42 10° E
ADEOS 3.5 04:11:52 10° N 04:17:01 60° WNW 04:17:44 54° WSW
Chandra Rocket (1) 4.2 04:17:03 15° SSW 04:17:21 16° SSW 04:19:33 10° SSE
MOS 1 Rocket 3.8 04:13:00 10° SSE 04:18:00 61° ENE 04:22:43 10° N
ATLAS 5 CENTAUR R/B 2.3 04:19:14 43° ENE 04:19:14 43° ENE 04:23:27 10° SE
Cosmos 1953 3.0 04:17:14 10° S 04:21:08 54° E 04:25:00 10° NNE
Cosmos 990 Rocket 3.8 04:19:24 41° NNW 04:21:15 80° WSW 04:26:22 10° SSE
Meteor 2-10 4.0 04:15:42 10° SSW 04:21:21 72° W 04:26:52 10° N
ERS-2 2.3 04:18:56 10° SSE 04:22:32 67° ENE 04:23:28 45° N
deb Chang Zheng 4 3.4 04:18:38 10° NNE 04:22:55 90° SSE 04:27:08 10° SSW
Meteor PRIRODA 3.7 04:21:23 10° NNE 04:25:01 73° ESE 04:28:37 10° S
Meteor 1-24 Rocket 4.5 04:27:41 32° SW 04:27:41 32° SW 04:31:21 10° SSW
USA 276 4.3 04:28:17 17° S 04:28:17 17° S 04:29:23 10° SSE
OAO 2 Rocket 4.1 04:28:31 31° SW 04:30:06 41° S 04:34:42 10° ESE
IRIDIUM 106 4.5 04:27:37 10° SSW 04:32:38 47° W 04:37:41 10° N
SL-8 R/B 3.9 04:34:39 37° NW 04:36:23 63° NNE 04:41:10 10° ESE
Cosmos 1461 3.2 04:35:33 43° WSW 04:36:44 55° NW 04:41:26 10° NNE
PSLV R/B 4.0 04:32:56 10° SSE 04:37:00 75° ENE 04:41:09 10° N
Cosmos 858 Rocket 4.5 04:33:38 14° NNW 04:38:07 86° ENE 04:43:20 10° SSE
Cosmos 1689 Rocket 2.4 04:36:01 10° SSE 04:38:53 61° ENE 04:39:51 36° N
CZ-4B R/B 3.6 04:37:06 10° SSW 04:37:54 16° SSW 04:37:54 16° SSW
Cosmos 1763 Rocket 3.7 04:40:44 28° WSW 04:42:55 43° WNW 04:47:54 10° N
Cosmos 1892 Rocket 3.9 04:43:43 39° WNW 04:44:12 41° W 04:48:19 10° SSW
CZ-2C R/B 3.1 04:42:34 15° SSW 04:45:02 25° SSE 04:48:18 10° ESE
Cosmos 841 Rocket 3.3 04:43:41 10° SSW 04:48:49 78° WNW 04:53:59 10° NNE
CZ-3 Stage 3 3.3 04:48:53 11° SSW 04:49:54 12° SSW 04:51:01 10° SSE
Cosmos 1898 Rocket 3.6 04:48:06 22° NW 04:51:10 49° WSW 04:56:07 10° S
Cosmos 921 Rocket 3.7 04:53:25 30° WNW 04:53:25 30° WNW 04:56:56 10° N
NOSS 0 Rocket 3.9 04:47:57 10° SW 04:54:03 60° WNW 05:00:11 10° NNE
Atlas Centaur 2 4.1 04:48:41 11° SW 04:55:47 38° S 05:03:27 10° ESE
COSMO-SKYMED 1 3.2 04:53:48 10° SSW 04:57:45 34° W 04:59:33 24° NW
SL-16 R/B 3.6 04:52:43 10° S 04:57:59 42° ESE 05:03:17 10° NE
Meteor 1-21 Rocket 4.2 04:53:13 10° NNW 04:58:56 72° W 05:04:43 10° S
Cosmos 1340 2.8 04:57:37 10° N 05:01:22 73° E 05:05:07 10° SSE
Cosmos 1570 Rocket 3.9 04:56:31 10° SSW 05:01:43 73° WNW 05:06:58 10° NNE
Cosmos 2278 Rocket 2.2 04:56:36 11° NNW 05:02:01 67° WSW 05:07:37 10° S
CZ-4B R/B 3.3 05:00:08 10° N 05:03:22 31° WNW 05:06:38 10° SW
Cosmos 1703 3.2 05:00:12 10° N 05:04:07 88° E 05:08:01 10° S
SAR-Lupe-4 4.0 05:05:17 10° S 05:08:40 40° W 05:11:25 14° NNW
Cosmos 1943 Rocket 4.1 05:04:46 10° N 05:09:26 25° NE 05:14:04 10° ESE
Cosmos 1464 Rocket 4.4 05:04:06 10° SW 05:09:43 37° WNW 05:15:23 10° N
Cosmos 1346 Rocket 4.4 05:06:36 10° N 05:10:17 35° ENE 05:13:57 10° SE
Cosmos 2237 Rocket 2.3 05:05:01 10° SW 05:10:33 55° WNW 05:16:09 10° NNE
CZ-2C R/B 3.2 05:05:42 10° SSE 05:10:48 60° ENE 05:16:02 10° N
Lacrosse 4 Rocket 1.8 05:10:17 10° SSW 05:14:25 69° ESE 05:18:43 10° NNE
Cosmos 2333 Rocket 3.6 05:14:07 16° WNW 05:14:58 17° NW 05:18:33 10° N
Lacrosse 5 rocket 1.7 05:11:52 14° NW 05:15:01 52° NE 05:18:37 10° ESE
Cosmos 1544 Rocket 4.2 05:12:10 10° SW 05:16:02 31° WNW 05:19:55 10° NNW
Cosmos 2219 Rocket 3.5 05:15:11 17° WNW 05:16:20 18° NW 05:20:03 10° N
H-2A R/B 3.4 05:13:26 10° N 05:16:43 30° WNW 05:20:00 10° SW
Cosmos 2208 Rocket 4.1 05:16:13 10° SSW 05:21:36 61° WNW 05:26:59 10° NNE
Cosmos 1937 Rocket 4.2 05:21:04 10° NW 05:25:46 33° W 05:30:25 10° SSW
Cosmos 1814 Rocket 4.1 05:21:11 10° SW 05:26:09 49° WNW 05:31:08 10° N
GEOS 3 Rocket 4.3 05:21:29 10° S 05:26:26 39° WSW 05:31:28 10° NW
BREEZE-M DEB (TANK) 2.8 05:20:11 12° WNW 05:27:26 69° SW 05:30:20 10° SE
Cosmos 372 Rocket 4.0 05:22:51 10° NNW 05:28:04 64° WSW 05:33:13 10° S
Cosmos 1606 Rocket 4.3 05:25:00 10° S 05:29:11 56° E 05:33:25 10° NNE
Cosmos 1400 Rocket 3.2 05:25:34 10° SSW 05:29:26 43° WNW 05:33:23 10° N
Envisat 3.3 05:25:27 10° N 05:30:17 45° WNW 05:35:06 10° SW
Cosmos 1328 3.8 05:27:35 10° NNW 05:31:28 59° W 05:35:18 10° S
CZ-4 R/B 4.5 05:31:18 10° NE 05:33:36 15° E 05:35:52 10° SE
Cosmos 2297 4.3 05:28:00 10° NNW 05:33:42 59° ENE 05:39:21 10° SE
FALCON 9 DEB 4.1 05:31:28 13° W 05:33:59 29° NNW 05:36:59 10° NE
COSMOS 2428 4.2 05:32:08 11° W 05:34:59 16° NW 05:38:22 10° N
NOAA 6 4.1 05:30:09 10° N 05:35:15 58° WNW 05:40:19 10° SSW
SL-4 R/B 1.9 05:32:24 10° SW 05:36:10 87° SE 05:40:18 10° NE
CORIOLIS 4.3 05:31:14 10° NNE 05:36:37 81° ESE 05:41:57 10° SSW
Cosmos 1626 Rocket 4.3 05:32:39 10° NNW 05:36:41 33° W 05:40:41 10° SSW
PSLV R/B 4.5 05:35:16 10° N 05:38:50 33° WNW 05:42:27 10° SW
Cosmos 2228 3.1 05:34:38 10° S 05:38:53 83° E 05:43:08 10° N
YAOGAN 6 3.7 05:36:47 10° NNW 05:39:50 25° WNW 05:42:53 10° SW
Cosmos 1092 Rocket 4.1 05:33:53 10° NNW 05:39:53 57° W 05:45:54 10° S
SL-19 R/B 4.5 05:38:44 10° N 05:42:36 44° WNW 05:45:56 10° SW
Cosmos 1980 4.5 05:38:47 10° WSW 05:43:40 29° NW 05:48:33 10° N
NOAA 11 4.3 05:38:35 10° NNE 05:44:06 88° ESE 05:49:32 10° SSW
Cosmos 1300 2.6 05:41:58 10° SSW 05:45:44 68° W 05:49:32 10° N
MOS 1-B 4.4 05:41:00 10° N 05:46:40 59° WNW 05:52:19 10° SSW
Cosmos 2279 Rocket 4.1 05:42:30 10° S 05:48:44 87° E 05:55:02 10° N
Cosmos 2292 Rocket 4.2 05:46:14 10° N 05:49:02 39° E 05:52:01 10° SSE
Cosmos 44 Rocket 4.5 05:47:57 10° NW 05:52:23 28° WSW 05:56:46 10° S
H-2A R/B 2.9 05:48:59 10° N 05:53:17 46° WNW 05:57:35 10° SW
ATLAS CENTAUR R/B 1.3 05:51:05 10° SW 05:54:41 49° NW 05:58:15 10° NNE
NOSS 3-2 (A) 3.3 05:50:02 10° SW 05:55:35 68° NW 06:01:57 10° NNE
